Regional Weather Roundup
Issued by NWS

Home | Current Version | Previous Version | Text Only | Print | Product List | Glossary On
Versions: 1 2 3 4 5 6 7 8 9 10 11 12 13 14 15 16 17 18 19 20 21 22 23 24 25 26 27 28 29 30 31 32 33 34 35 36 37 38 39 40 41 42 43 44 45 46 47 48 49 50
000
ASUS45 KCYS 240910
RWRWY

WYOMING REGIONAL WEATHER ROUNDUP
NATIONAL WEATHER SERVICE CHEYENNE WY
200 AM MST MON NOV 24 2014

NOTE:  "FAIR" INDICATES FEW OR NO CLOUDS BELOW 12,000 FEET
WITH NO SIGNIFICANT WEATHER AND/OR OBSTRUCTIONS TO VISIBILITY.

WYZ001-241000-
YELLOWSTONE NATIONAL PARK

CITY           SKY/WX    TMP DP  RH WIND       PRES   REMARKS
LK YELLOWSTONE   N/A     19  13  77 W6        29.93R WCI  11
W YELLOWSTONE  NOT AVBL

$$
WYZ002>013-054>058-071-098>099-241000-
NORTHERN WYOMING

CITY           SKY/WX    TMP DP  RH WIND       PRES   REMARKS
JACKSON        CLOUDY    25  23  93 W8        29.97S WCI  16
CODY           MOCLDY    32  19  59 W10       29.83S WCI  24
GREYBULL       CLOUDY    24  19  81 NE3       29.87S
WORLAND        CLOUDY    22  17  81 CALM      29.85S
SHERIDAN       CLOUDY    27  21  78 SW6       29.80S WCI  20
BUFFALO        MOCLDY    26  16  65 S3        29.79F
GILLETTE       NOT AVBL
HULETT           N/A    N/A N/A N/A MISG        N/A
NEWCASTLE      FAIR      21  16  79 NW8       29.78R WCI  12

$$
WYZ014>020-022>026-101>103-241000-
CENTRAL WYOMING

CITY           SKY/WX    TMP DP  RH WIND       PRES   REMARKS
BIG PINEY      CLOUDY    39  16  39 W9        29.97F WCI  33
PINEDALE       LGT SNOW  18  18 100 CALM      29.97F
DUBOIS         PTSUNNY   23  14  68 W30G36    29.85F HAZE    WCI   5
LANDER         NOT AVBL
RIVERTON       CLOUDY    24  13  62 W9        29.86F WCI  14
CASPER         CLOUDY    26  13  57 SW15      29.83F WCI  14
DOUGLAS        MOCLDY   N/A N/A N/A N8        29.82F

$$
WYZ021-027>030-104>119-241000-
SOUTHERN WYOMING

CITY           SKY/WX    TMP DP  RH WIND       PRES   REMARKS
EVANSTON       LGT SNOW  23  21  92 SW20      30.07S FOG     WCI   8
KEMMERER       LGT SNOW  23  21  93 W16G23    30.01  WCI  10
FORT BRIDGER   FAIR      25  21  85 W31G41    30.04F WCI   8
ROCK SPRINGS   CLOUDY    23  16  74 W23       30.00R WCI   7
DIXON          CLOUDY    25  16  69 SW9       30.02F WCI  15
RAWLINS        MOCLDY    22  14  71 W30G41    29.88F WCI   4
SARATOGA       PTSUNNY   23  14  68 W16G26    29.92F WCI  10
LARAMIE        CLOUDY    20   8  60 W22       29.83F WCI   3
CHEYENNE       PTCLDY    26   9  48 NW26G38   29.80F WCI  10
TORRINGTON     CLEAR     21  13  71 W3        29.82R
PINE BLUFFS    FAIR      28  14  54 NW25G32   29.81F WCI  14

$$


USA.gov is the U.S. government's official web portal to all federal, state and local government web resources and services.